Location: Kuppenheim
(48.8299°N, 8.2568°E)
Time: 07:32:49
(UTC+00:00)

Envisat - Pass Details

Date: 29 November 2022
Orbit: 763 x 765 km, 98.2° (Epoch: 04 February)

Event Time Altitude Azimuth Distance (km) Brightness Sun altitude
Rises 16:28:45 0° 225° (SW) 3,222 7.7 -8.8°
Reaches altitude 10° 16:33:18 10° 264° (W) 2,305 6.9 -9.5°
Maximum altitude 16:34:22 11° 276° (W) 2,265 6.5 -9.6°
Drops below altitude 10° 16:35:26 10° 288° (WNW) 2,309 6.3 -9.8°
Sets 16:40:03 0° 327° (NNW) 3,244 6.4 -10.5°
